This demonstration page uses our WeatherBlox Daily Observations layout. Learn more.

Left ArrowRight Arrow

39.92423, -83.80882

Hourly Observations for October 18, 2020

Temp ( °F °C ) Dew Point ( °F °C ) Humidity (%) Winds ( mph kmh ) Pressure ( in mb ) Visibility ( mi km ) Precip ( " mm )
12:56 am 00:56 Cloudy 49 9.4 31 -0.6 50 50 S 7 11 30.2 1023 10 16.0934 0 0
1:56 am 01:56 Cloudy 49 9.4 31 -0.6 50 50 S 7 11 30.21 1023 10 16.0934 0 0
2:56 am 02:56 Clear 47 8.3 31 -0.6 54 54 S 7 11 30.21 1023 10 16.0934 0 0
3:56 am 03:56 Clear 46 7.8 31 -0.6 56 56 SSE 8 13 30.18 1022 10 16.0934 0 0
4:56 am 04:56 Cloudy 48 8.9 31 -0.6 52 52 SSE 7 11 30.17 1022 10 16.0934 0 0
5:56 am 05:56 Cloudy 49 9.4 32 0 52 52 S 7 11 30.17 1022 10 16.0934 0 0
6:56 am 06:56 Cloudy 50 10 34 1.1 54 54 S 5 7 30.19 1022 10 16.0934 0 0
7:56 am 07:56 Cloudy 52 11.1 36 2.2 55 55 S 7 11 30.18 1022 10 16.0934 0 0
8:56 am 08:56 Cloudy 51 10.6 37 2.8 59 59 S 8 13 30.19 1022 10 16.0934 0 0
9:56 am 09:56 Cloudy 52 11.1 38 3.3 59 59 S 7 11 30.19 1022 10 16.0934 0 0
10:56 am 10:56 Cloudy with Light Rain 52 11.1 40 4.4 64 64 SSW 9 15 30.21 1023 10 16.0934 0.001 0.001
11:56 am 11:56 Cloudy with Light Rain 47 8.3 47 8.3 100 100 S 7 11 30.23 1024 10 16.0934 0.03 0.762
12:56 pm 12:56 Cloudy 48 8.9 46 7.8 93 93 S 8 13 30.21 1023 10 16.0934 0.001 0.001
1:56 pm 13:56 Cloudy 50 10 47 8.3 89 89 S 7 11 30.19 1022 10 16.0934 0 0
2:56 pm 14:56 Cloudy 53 11.7 48 8.9 83 83 S 9 15 30.16 1022 10 16.0934 0 0
3:56 pm 15:56 Cloudy 55 12.8 48 8.9 77 77 SSW 10 17 30.15 1021 10 16.0934 0 0
4:56 pm 16:56 Cloudy 55 12.8 49 9.4 80 80 S 8 13 30.16 1021 10 16.0934 0 0
5:56 pm 17:56 Cloudy 56 13.3 49 9.4 77 77 SW 7 11 30.18 1022 10 16.0934 0 0
6:56 pm 18:56 Cloudy 55 12.8 50 10 83 83 SSE 3 6 30.18 1022 10 16.0934 0 0
7:56 pm 19:56 Cloudy 54 12.2 50 10 87 87 SSE 6 9 30.18 1022 10 16.0934 0 0
8:56 pm 20:56 Cloudy 53 11.7 50 10 89 89 S 5 7 30.2 1023 10 16.0934 0 0
9:56 pm 21:56 Mostly Clear 52 11.1 50 10 93 93 S 5 7 30.2 1023 10 16.0934 0 0
10:56 pm 22:56 Clear 52 11.1 50 10 93 93 Calm 30.21 1023 10 16.0934 0 0
11:56 pm 23:56 Mostly Clear 52 11.1 50 10 93 93 SSW 3 6 30.22 1024 10 16.0934 0 0

Powered by AerisWeather